Погода в Намах

Россия / Республика Саха (Якутия)     69°30′44″N   132°14′35″E
темп.,
°C
ветер,
м/с
пор.,
м/с
влажн.,
%
обл.,
%
осадки,
мм/ч
давл.,
гПа
погр.,
м
3 марта, ср
ср300:00−40сз019882 0.0 102618
03:00−41с1110073 0.0 102618
06:00−41ссз1110047 0.0 102618
09:00−40ссз119968 0.0 102518
12:00−37с2396100 0.0 1024214
15:00−37с3597100 0.1 1022316
18:00−40ссз33100100 0.0 102324
21:00−40сз22100100 0.1 102318
4 марта, чт
чт400:00−39сз22100100 0.1 102218
03:00−36зсз1199100 0.1 102133
06:00−34зсз1199100 0.2 102144
09:00−31сз1498100 0.4 1020195
12:00−27с5895100 0.2 1020579
15:00−26ссз5896100 0.3 1020568
18:00−27ссз4898100 0.1 1022302
21:00−27ссз41098100 0.2 1022428
5 марта, пт
пт500:00−29с51097100 0.1 1023392
03:00−31ссв4998100 0.2 1024287
06:00−32ссв3598100 0.1 1025138
09:00−33с2299100 0.1 102642
12:00−31ссз1295100 0.0 1026185
15:00−31зюз1196100 0.1 102672
18:00−33зсз0199100 0.0 102819
21:00−34зсз11100100 0.1 102819
6 марта, сб
сб600:00−35зсз00100100 0.0 102819
03:00−34зсз00100100 0.1 102819
06:00−34зюз0199100 0.0 102919
09:00−33ююв0197100 0.0 102819
12:00−30з1192100 0.0 1027205
15:00−29св1191100 0.0 1027189
18:00−33св119996 0.0 102719
21:00−33ю119795 0.0 102719
7 марта, вс
вс700:00−33ююв1195100 0.0 102519
03:00−31ююв1190100 0.0 102519
06:00−31ююв1188100 0.0 102519
09:00−29ююв1186100 0.0 102419
12:00−26юв238398 0.0 1023173
15:00−27юв228847 0.0 102128
18:00−31юв228811 0.0 102119
21:00−32ююв238821 0.0 102019